Change the Weather History Date:

Friday, May 23, 2014

  Actual Average Record
Temperature  
Mean Temperature 77 °F 74 °F  
Max Temperature 90 °F 85 °F 95 °F (1948)
Min Temperature 63 °F 64 °F 49 °F (2002)
Degree Days  
Heating Degree Days 0 0  
Month to date heating degree days 20 10  
Since 1 July heating degree days 2744 2389  
Cooling Degree Days 12 9  
Month to date cooling degree days 155 156  
Year to date cooling degree days 244 274  
Growing Degree Days 26 (Base 50)    
Moisture  
Dew Point 64 °F    
Average Humidity 67    
Maximum Humidity 93    
Minimum Humidity 40    
Precipitation  
Precipitation 0.00 in 0.14 in 1.61 in (1955)
Month to date precipitation 2.60 3.24  
Year to date precipitation 27.82 22.97  
Sea Level Pressure  
Sea Level Pressure 30.09 in    
Wind  
Wind Speed 1 mph (SSE)    
Max Wind Speed 8 mph    
Max Gust Speed 12 mph    
Visibility 10 miles    
Events      
T = Trace of Precipitation, MM = Missing Value Source: NWS Daily Summary

Daily Weather History Graph

Daily Weather History Graph

Search for Another Location

Airport or City:

Trip Planner

Search our weather history database for the weather conditions in past years. The results will help you decide how hot, cold, wet, or windy it might be!

Date:

Astronomy

May. 23, 2014 Rise Set
Actual Time 5:57 AM CDT 7:56 PM CDT
Civil Twilight 5:30 AM CDT 8:24 PM CDT
Nautical Twilight 4:56 AM CDT 8:57 PM CDT
Astronomical Twilight 4:21 AM CDT 9:33 PM CDT
Moon 2:33 AM CDT (5/23) 3:06 PM CDT (5/23)
Length of Visible Light 14h 54m
Length of Day
13h 59m
Waning Crescent, 27% of the Moon is Illuminated
May 23
Waning Crescent
May 28
New
Jun 5
First Quarter
Jun 12
Full
Jun 19
Last Quarter

Hourly Weather History & Observations

Time (CDT) Temp. Heat Index Dew Point Humidity Pressure Visibility Wind Dir Wind Speed Gust Speed Precip Events Conditions
12:54 AM 66.0 °F - 63.0 °F 90% 30.10 in 10.0 mi Calm Calm - N/A   Clear
1:54 AM 66.0 °F - 63.0 °F 90% 30.11 in 10.0 mi Calm Calm - N/A   Clear
2:54 AM 64.9 °F - 62.1 °F 90% 30.11 in 10.0 mi Calm Calm - N/A   Clear
3:54 AM 64.9 °F - 62.1 °F 90% 30.10 in 10.0 mi Calm Calm - N/A   Clear
4:54 AM 64.9 °F - 63.0 °F 93% 30.10 in 10.0 mi Calm Calm - N/A   Clear
5:54 AM 64.9 °F - 63.0 °F 93% 30.11 in 10.0 mi SE 4.6 mph - N/A   Scattered Clouds
6:54 AM 66.9 °F - 64.0 °F 90% 30.13 in 9.0 mi Calm Calm - N/A   Partly Cloudy
7:54 AM 71.1 °F - 66.0 °F 84% 30.14 in 10.0 mi SSW 3.5 mph - 0.00 in   Partly Cloudy
8:54 AM 75.9 °F - 66.9 °F 74% 30.15 in 10.0 mi Calm Calm - N/A   Clear
9:54 AM 81.0 °F 83.8 °F 68.0 °F 65% 30.15 in 10.0 mi Variable 3.5 mph - N/A   Clear
10:54 AM 82.9 °F 84.6 °F 64.9 °F 54% 30.14 in 10.0 mi Calm Calm - N/A   Clear
11:54 AM 84.0 °F 85.4 °F 64.0 °F 51% 30.14 in 10.0 mi Calm Calm - N/A   Scattered Clouds
12:54 PM 86.0 °F 86.3 °F 62.1 °F 44% 30.12 in 10.0 mi Calm Calm - N/A   Mostly Cloudy
1:54 PM 87.1 °F 87.0 °F 61.0 °F 41% 30.09 in 10.0 mi ENE 4.6 mph - N/A   Mostly Cloudy
2:54 PM 88.0 °F 87.9 °F 61.0 °F 40% 30.07 in 10.0 mi WSW 5.8 mph - N/A   Scattered Clouds
3:54 PM 87.1 °F 87.0 °F 61.0 °F 41% 30.06 in 10.0 mi Calm Calm - N/A   Scattered Clouds
4:54 PM 87.1 °F 86.7 °F 60.1 °F 40% 30.05 in 10.0 mi Calm Calm - N/A   Scattered Clouds
5:54 PM 87.1 °F 87.0 °F 61.0 °F 41% 30.04 in 10.0 mi Calm Calm - N/A   Scattered Clouds
6:54 PM 84.0 °F 86.3 °F 66.0 °F 55% 30.03 in 10.0 mi SE 4.6 mph - N/A   Mostly Cloudy
7:54 PM 78.1 °F - 68.0 °F 71% 30.04 in 10.0 mi Calm Calm - N/A   Mostly Cloudy
8:54 PM 73.0 °F - 66.9 °F 81% 30.04 in 10.0 mi Calm Calm - N/A   Scattered Clouds
9:54 PM 73.0 °F - 66.9 °F 81% 30.05 in 10.0 mi Calm Calm - N/A   Scattered Clouds
10:54 PM 72.0 °F - 66.0 °F 81% 30.06 in 10.0 mi Calm Calm - N/A   Mostly Cloudy
11:54 PM 71.1 °F - 66.0 °F 84% 30.06 in 10.0 mi Calm Calm - N/A   Scattered Clouds